Homer, AK

9:16 AM AKDT on April 24, 2018 (GMT -0800)
Homer

Weather History for PAHO - May, 2014

Change the Weather History Date:

Tuesday, May 20, 2014

  Actual Average Record
Temperature  
Mean Temperature 54 °F -  
Max Temperature 63 °F 51 °F 64 °F (1960)
Min Temperature 46 °F 36 °F 26 °F (1950)
Degree Days  
Heating Degree Days 11    
Growing Degree Days 4 (Base 50)    
Moisture  
Dew Point 23 °F    
Average Humidity 32    
Maximum Humidity 54    
Minimum Humidity 20    
Precipitation  
Precipitation 0.00 in - - ()
Sea Level Pressure  
Sea Level Pressure 29.91 in    
Wind  
Wind Speed 13 mph (NNE)    
Max Wind Speed 22 mph    
Max Gust Speed 32 mph    
Visibility 7 miles    
Events      
Averages and records for this station are not official NWS values.
T = Trace of Precipitation, MM = Missing Value Source: NWS Daily Summary

Daily Weather History Graph

Daily Weather History Graph

Search for Another Location

Airport or City:

Astronomy

May. 20, 2014 Rise Set
Actual Time 5:19 AM AKDT 10:47 PM AKDT
Civil Twilight 4:12 AM AKDT 11:54 PM AKDT
Nautical Twilight 2:34 AM AKDT 1:30 AM AKDT
Astronomical Twilight Sun does not set Sun does not set
Moon 2:40 AM AKDT (5/20) 12:26 PM AKDT (5/20)
Length of Visible Light 19h 41m
Length of Day
17h 27m
Waning Gibbous, 58% of the Moon is Illuminated
May 20
Waning Gibbous
May 21
Last Quarter
May 28
New
Jun 5
First Quarter
Jun 12
Full

Hourly Weather History & Observations

Time (AKDT) Temp. Windchill Dew Point Humidity Pressure Visibility Wind Dir Wind Speed Gust Speed Precip Events Conditions
12:53 AM 52.0 °F - 16.0 °F 24% 29.85 in 10.0 mi North 21.9 mph 31.1 mph N/A   Overcast
1:53 AM 51.1 °F - 16.0 °F 25% 29.86 in 10.0 mi North 20.7 mph 32.2 mph N/A   Overcast
2:53 AM 50.0 °F - 15.1 °F 25% 29.87 in 10.0 mi North 17.3 mph 27.6 mph N/A   Partly Cloudy
3:53 AM 48.9 °F - 15.1 °F 26% 29.89 in 10.0 mi NNE 9.2 mph 17.3 mph N/A   Scattered Clouds
4:53 AM 46.9 °F - 17.1 °F 30% 29.89 in 10.0 mi NNE 9.2 mph 17.3 mph N/A   Mostly Cloudy
5:53 AM 48.0 °F - 17.1 °F 29% 29.90 in 9.0 mi NE 13.8 mph 19.6 mph N/A   Clear
6:53 AM 46.9 °F - 21.0 °F 36% 29.91 in 5.0 mi East 5.8 mph - N/A   Smoke
7:00 AM 46.4 °F 44.3 °F 23.0 °F 40% 29.90 in 5.0 mi East 4.6 mph - N/A   Smoke
7:53 AM 48.0 °F - 23.0 °F 37% 29.91 in 3.0 mi East 11.5 mph - N/A   Smoke
8:53 AM 48.9 °F - 21.9 °F 35% 29.91 in 3.0 mi ENE 11.5 mph - N/A   Smoke
9:53 AM 50.0 °F - 21.0 °F 32% 29.91 in 5.0 mi ENE 13.8 mph - N/A   Smoke
10:53 AM 53.1 °F - 21.0 °F 29% 29.91 in 7.0 mi ENE 13.8 mph 19.6 mph N/A   Scattered Clouds
11:53 AM 55.9 °F - 19.9 °F 25% 29.91 in 7.0 mi NNE 15.0 mph 19.6 mph N/A   Scattered Clouds
12:53 PM 55.9 °F - 26.1 °F 32% 29.91 in 3.0 mi SE 5.8 mph - N/A   Haze
1:53 PM 55.9 °F - 30.9 °F 39% 29.91 in 3.0 mi South 8.1 mph - N/A   Smoke
2:00 PM 57.2 °F - 28.4 °F 33% 29.91 in 2.5 mi South 8.1 mph - N/A   Smoke
2:04 PM 57.2 °F - 28.4 °F 33% 29.91 in 3.0 mi SSW 9.2 mph - N/A   Smoke
2:53 PM 57.9 °F - 27.0 °F 31% 29.91 in 3.0 mi South 9.2 mph - N/A   Smoke
3:53 PM 62.1 °F - 21.0 °F 21% 29.91 in 3.0 mi NNW 9.2 mph - N/A   Smoke
4:25 PM 60.8 °F - 21.2 °F 22% 29.91 in 4.0 mi North 12.7 mph 24.2 mph N/A   Smoke
4:53 PM 61.0 °F - 19.9 °F 21% 29.91 in 10.0 mi North 18.4 mph 23.0 mph N/A   Smoke
5:53 PM 57.9 °F - 18.0 °F 21% 29.91 in 10.0 mi North 11.5 mph 21.9 mph N/A   Smoke
6:53 PM 57.9 °F - 17.1 °F 20% 29.91 in 10.0 mi North 11.5 mph - N/A   Smoke
7:13 PM 57.2 °F - 17.6 °F 21% 29.91 in 10.0 mi North 10.4 mph 18.4 mph N/A   Smoke
7:40 PM 51.8 °F - 30.2 °F 44% 29.91 in 10.0 mi SW 10.4 mph - N/A   Smoke
7:53 PM 53.1 °F - 28.9 °F 40% 29.92 in 10.0 mi SW 4.6 mph - N/A   Smoke
8:53 PM 50.0 °F - 33.1 °F 52% 29.92 in 10.0 mi WSW 8.1 mph - N/A   Smoke
9:53 PM 48.9 °F - 33.1 °F 54% 29.92 in 10.0 mi WSW 5.8 mph - N/A   Overcast
10:53 PM 46.9 °F - 28.0 °F 48% 29.92 in 10.0 mi WSW 5.8 mph - N/A   Mostly Cloudy
11:53 PM 48.0 °F - 24.1 °F 39% 29.93 in 10.0 mi WSW 4.6 mph - N/A   Clear